This is the latest recevied weather packets stored in our database for station/object N5JXS. If no packets are shown the sender has not sent any weather packets the latest 10 day(s).
| Time | Temp. | Humidity | Pressure | Rain* | Wind** | Luminosity | Snow |
|---|---|---|---|---|---|---|---|
| 1777053969 | 15° C | 16% | 1013 hPa | 0 mm | - | 675 W/m² | - |
| 1777053663 | 15° C | 16% | 1013.3 hPa | 0 mm | - | 688 W/m² | - |
| 1777053362 | 15° C | 16% | 1013.3 hPa | 0 mm | - | 684 W/m² | - |
| 1777053058 | 14.44° C | 16% | 1013.8 hPa | 0 mm | - | 695 W/m² | - |
| 1777052755 | 13.89° C | 16% | 1013.5 hPa | 0 mm | - | 694 W/m² | - |
| 1777052454 | 14.44° C | 16% | 1013.6 hPa | 0 mm | - | 700 W/m² | - |
| 1777052151 | 13.89° C | 17% | 1013.6 hPa | 0 mm | - | 683 W/m² | - |
| 1777051850 | 13.89° C | 17% | 1013.9 hPa | 0 mm | - | 679 W/m² | - |
| 1777051550 | 14.44° C | 17% | 1013.8 hPa | 0 mm | - | 665 W/m² | - |
| 1777051246 | 14.44° C | 17% | 1013.9 hPa | 0 mm | - | 641 W/m² | - |
| 1777050941 | 13.89° C | 18% | 1013.8 hPa | 0 mm | - | 630 W/m² | - |
| 1777050638 | 13.89° C | 17% | 1014 hPa | 0 mm | - | 654 W/m² | - |
| 1777050332 | 13.33° C | 17% | 1014.1 hPa | 0 mm | - | 654 W/m² | - |
| 1777050027 | 13.33° C | 17% | 1014 hPa | 0 mm | - | 627 W/m² | - |
| 1777049726 | 13.33° C | 17% | 1014 hPa | 0 mm | - | 627 W/m² | - |
| 1777049424 | 13.33° C | 17% | 1014.1 hPa | 0 mm | - | 629 W/m² | - |
| 1777049121 | 12.78° C | 18% | 1014 hPa | 0 mm | - | 619 W/m² | - |
| 1777048816 | 12.78° C | 18% | 1014.1 hPa | 0 mm | - | 615 W/m² | - |
| 1777048512 | 12.78° C | 18% | 1013.9 hPa | 0 mm | - | 583 W/m² | - |
| 1777048211 | 12.22° C | 20% | 1014 hPa | 0 mm | - | 566 W/m² | - |
| 1777047907 | 11.67° C | 20% | 1014.3 hPa | 0 mm | - | 551 W/m² | - |
| 1777047603 | 11.67° C | 20% | 1014.4 hPa | 0 mm | - | 516 W/m² | - |
| 1777047298 | 11.11° C | 21% | 1014.1 hPa | 0 mm | - | 74 W/m² | - |
| 1777046995 | 11.11° C | 21% | 1014.4 hPa | 0 mm | - | 119 W/m² | - |
| 1777046691 | 10.56° C | 21% | 1014.4 hPa | 0 mm | - | 59 W/m² | - |
* Rain latest hour (hover to see other rain measurements)
** Current wind speed in m/s (hover to see current wind gust speed)